Cincinnati, OH

6:28 AM EDT on September 27, 2016 (GMT -0400)
Cincinnati Municipal-Lunken

Weather History for KLUK - November, 2011

Change the Weather History Date:

Sunday, November 27, 2011

  Actual Average Record
Temperature  
Mean Temperature 53 °F -  
Max Temperature 60 °F 52 °F 76 °F (1990)
Min Temperature 46 °F 37 °F 18 °F (1977)
Degree Days  
Heating Degree Days 12    
Growing Degree Days 3 (Base 50)    
Moisture  
Dew Point 51 °F    
Average Humidity 90    
Maximum Humidity 100    
Minimum Humidity 67    
Precipitation  
Precipitation 0.48 in - - ()
Sea Level Pressure  
Sea Level Pressure 29.91 in    
Wind  
Wind Speed 8 mph (SSW)    
Max Wind Speed 12 mph    
Max Gust Speed -    
Visibility 6 miles    
Events Rain    
Averages and records for this station are not official NWS values.
T = Trace of Precipitation, MM = Missing Value Source: NWS Daily Summary

Daily Weather History Graph

Daily Weather History Graph

Search for Another Location

Airport or City:

Trip Planner

Search our weather history database for the weather conditions in past years. The results will help you decide how hot, cold, wet, or windy it might be!

Date:

Astronomy

Nov. 27, 2011 Rise Set
Actual Time 7:33 AM EST 5:16 PM EST
Civil Twilight 7:04 AM EST 5:46 PM EST
Nautical Twilight 6:31 AM EST 6:18 PM EST
Astronomical Twilight 5:59 AM EST 6:51 PM EST
Moon 9:57 AM EST 7:54 PM EST
Length of Visible Light 10h 41m
Length of Day
9h 43m
Waxing Crescent, 8% of the Moon is Illuminated
Nov 27
Waxing Crescent
Dec 2
First Quarter
Dec 10
Full
Dec 17
Last Quarter
Dec 24
New

Hourly Weather History & Observations

Time (EST) Temp. Windchill Dew Point Humidity Pressure Visibility Wind Dir Wind Speed Gust Speed Precip Events Conditions
12:53 AM 60.1 °F - 48.9 °F 67% 29.93 in 10.0 mi South 11.5 mph - N/A   Overcast
1:53 AM 60.1 °F - 50.0 °F 69% 29.91 in 10.0 mi South 10.4 mph - 0.00 in Rain Light Rain
2:53 AM 60.1 °F - 51.1 °F 72% 29.91 in 10.0 mi South 10.4 mph - 0.00 in   Overcast
3:53 AM 57.0 °F - 52.0 °F 83% 29.90 in 6.0 mi SSW 4.6 mph - 0.01 in Rain Light Rain
4:53 AM 55.9 °F - 53.1 °F 90% 29.89 in 5.0 mi South 4.6 mph - 0.04 in Rain Rain
5:53 AM 55.9 °F - 54.0 °F 93% 29.88 in 6.0 mi South 6.9 mph - 0.07 in Rain Light Rain
6:53 AM 55.9 °F - 54.0 °F 93% 29.87 in 7.0 mi South 8.1 mph - 0.02 in Rain Light Rain
7:53 AM 57.0 °F - 55.0 °F 93% 29.86 in 4.0 mi South 8.1 mph - 0.03 in Rain Light Rain
8:06 AM 57.2 °F - 55.4 °F 94% 29.87 in 4.0 mi South 8.1 mph - 0.00 in Rain Light Rain
8:19 AM 57.2 °F - 55.4 °F 94% 29.87 in 4.0 mi South 6.9 mph - 0.00 in Rain Light Rain
8:23 AM 57.2 °F - 55.4 °F 94% 29.87 in 2.5 mi South 6.9 mph - 0.01 in Rain Light Rain
8:53 AM 57.0 °F - 55.0 °F 93% 29.88 in 2.0 mi South 6.9 mph - 0.04 in Rain Light Rain
9:53 AM 57.2 °F - 55.4 °F 94% 29.88 in 2.0 mi South 8.1 mph - N/A Rain Light Rain
10:28 AM 57.2 °F - 55.4 °F 94% 29.88 in 3.0 mi South 8.1 mph - 0.02 in Rain Light Rain
10:53 AM 57.9 °F - 55.9 °F 93% 29.88 in 10.0 mi South 5.8 mph - 0.02 in   Overcast
11:53 AM 57.9 °F - 55.9 °F 93% 29.87 in 3.0 mi South 6.9 mph - 0.00 in Rain Light Rain
12:14 PM 57.2 °F - 57.2 °F 100% 29.86 in 2.5 mi South 6.9 mph - 0.00 in Rain Light Rain
12:38 PM 59.0 °F - 57.2 °F 94% 29.85 in 9.0 mi South 9.2 mph - 0.00 in Rain Light Rain
12:53 PM 59.0 °F - 57.0 °F 93% 29.84 in 10.0 mi SSW 6.9 mph - 0.00 in   Overcast
1:53 PM 60.1 °F - 57.9 °F 93% 29.83 in 10.0 mi SSW 9.2 mph - 0.00 in Rain Light Rain
2:16 PM 53.6 °F - 51.8 °F 94% 29.85 in 8.0 mi West 10.4 mph - 0.01 in Rain Light Rain
2:53 PM 53.1 °F - 50.0 °F 89% 29.87 in 10.0 mi Variable 4.6 mph - 0.01 in   Overcast
3:53 PM 50.0 °F - 46.9 °F 89% 29.92 in 10.0 mi West 5.8 mph - 0.00 in Rain Light Rain
4:53 PM 48.9 °F - 46.9 °F 93% 29.94 in 7.0 mi WNW 6.9 mph - 0.01 in Rain Light Rain
5:53 PM 48.0 °F - 45.0 °F 89% 29.96 in 5.0 mi NW 4.6 mph - 0.05 in Rain Rain
6:40 PM 46.4 °F 44.3 °F 44.6 °F 93% 29.97 in 6.0 mi West 4.6 mph - 0.02 in Rain Light Rain
6:53 PM 46.9 °F - 45.0 °F 93% 29.96 in 9.0 mi Calm Calm - 0.02 in Rain Light Rain
7:49 PM 46.4 °F 45.2 °F 44.6 °F 93% 29.96 in 7.0 mi Variable 3.5 mph - 0.01 in Rain Light Rain
7:53 PM 46.9 °F - 45.0 °F 93% 29.95 in 6.0 mi North 3.5 mph - 0.01 in Rain Light Rain
8:53 PM 46.9 °F - 45.0 °F 93% 29.98 in 5.0 mi Calm Calm - 0.05 in Rain Light Rain
9:53 PM 46.9 °F - 45.0 °F 93% 30.00 in 5.0 mi Calm Calm - 0.06 in Rain Rain
10:53 PM 46.9 °F - 44.1 °F 90% 30.01 in 8.0 mi NNW 4.6 mph - 0.03 in Rain Light Rain
11:50 PM 46.4 °F 42.4 °F 42.8 °F 87% 29.98 in 7.0 mi North 8.1 mph - 0.01 in Rain Light Rain
11:53 PM 46.0 °F 42.5 °F 43.0 °F 89% 29.98 in 7.0 mi North 6.9 mph - 0.01 in Rain Light Rain